Location: Lane
(33.5226°N, 79.8788°W)
Time: 20:19:07
(UTC+00:00)

Explorer 11/Cluster Stage 4 - Pass Details

Date: 04 October 2022
Orbit: 466 x 1247 km, 28.8° (Epoch: 01 December)

Event Time Altitude Azimuth Distance (km) Brightness Sun altitude
Rises 18:52:49 0° 267° (W) 4,117 10.7 44.6°
Reaches altitude 10° 18:55:54 10° 263° (W) 3,089 10.3 44.2°
Maximum altitude 19:03:25 57° 188° (S) 1,216 9.0 43.2°
Drops below altitude 10° 19:09:40 10° 111° (ESE) 2,587 9.2 42.3°
Sets 19:12:03 0° 107° (ESE) 3,408 9.6 42.0°
